sat.trackr.live / text

‹ back to catalog

STARLINK-2470

NORAD 48334 · 2021-036BL

PAYLOAD ACTIVE UNKNOWN

§ Identity

Operator
Country
US
Launch date
2021-04-29
Launch site
AFETR
Launch vehicle
Mass (kg)
RCS (m²)

Purposes: comms

External: N2YO · Heavens-Above · Gunter

§ Orbital elements

Epoch: 2026-05-25T02:42:32.537376Z

Period
94.01 min
Inclination
53.1598°
Eccentricity
0.0001370
Mean motion
15.31699625 rev/d
Perigee alt
469.8 km
Apogee alt
471.7 km
Semi-major
6,848.9 km
B*
1.2314e-5
RAAN
105.5784°
Arg perigee
90.2396°
Mean anomaly
269.8762°
Rev number
27,975

§ Raw data

STARLINK-24701 48334U 21036BL  26145.11287659  .00000017  00000+0  12314-4 0  99932 48334  53.1598 105.5784 0001370  90.2396 269.8762 15.31699625279752

JSON: /api/v1/satellites/48334 · /tle

For live sub-satellite position, see the globe view (requires WebGL).

§ Visibility from observer

Set your observer location to see the next 7 days of passes ≥ 10°. The values pass through the URL so the page stays shareable.

No JS? Fill the form by hand. The geolocation button needs JavaScript.